Location: Aiyekoto
(8.4333°N, 4.3667°E)
Time: 13:25:14
(UTC+00:00)

Cosmos 1515 Rocket - Pass Details

Date: 07 June 2020
Orbit: 605 x 631 km, 82.5° (Epoch: 07 July)

Event Time Altitude Azimuth Distance (km) Brightness Sun altitude
Rises 03:33:02 0° 3° (N) 2,851 7.4 -25.3°
Reaches altitude 10° 03:35:17 10° 8° (N) 1,947 6.6 -24.9°
Maximum altitude 03:39:29 55° 86° (E) 730 4.1 -24.0°
Enters shadow 03:42:11 21° 157° (SSE) 1,366 5.2 -23.4°
